Regional Weather Roundup
Issued by NWS

Home | Current Version | Previous Version | Text Only | Print | Product List | Glossary Off
Versions: 1 2 3 4 5 6 7 8 9 10 11 12 13 14 15 16 17 18 19 20 21 22 23 24 25 26 27 28 29 30 31 32 33 34 35 36 37 38 39 40 41 42 43 44 45 46 47 48 49 50

000
ASUS43 KMPX 091510
RWRMN
WEATHER ROUNDUP FOR MINNESOTA
NATIONAL WEATHER SERVICE TWIN CITIES/CHANHASSEN MN
900 AM CST FRI DEC 09 2016


NOTE: "FAIR" INDICATES FEW OR NO CLOUDS BELOW 12,000 FEET WITH NO
SIGNIFICANT WEATHER AND/OR OBSTRUCTIONS TO VISIBILITY. N/A MEANS
CURRENT SKY AND/OR WEATHER CONDITIONS ARE NOT AVAILABLE.

MNZ060>063-068>070-091600-
   Twin Cities Metro

CITY           SKY/WX    TMP DP  RH WIND       PRES   REMARKS
TWIN CITIES    FLURRIES  14   9  80 SW8       30.56R WCI   3
ST PAUL        CLOUDY    15  32 100 SW10      30.57R WCI   2
CRYSTAL        CLOUDY    12   6  77 W6        30.54S WCI   3
BLAINE         FLURRIES  16  10  79 W8        30.53F WCI   5
LAKEVILLE      FLURRIES   7   3  85 W7        30.56R WCI  -5
EDEN PRAIRIE   MOSUNNY   12   7  80 W5        30.55R WCI   4
SOUTH ST PAUL  CLOUDY    15  10  82 W3        30.56R
LAKE ELMO      CLOUDY    18  12  79 NW3       30.55S
$$
MNZ001>005-007-008-013>017-022>024-027-028-091600-
   Northwest Minnesota

CITY           SKY/WX    TMP DP  RH WIND       PRES   REMARKS
BEMIDJI        FLURRIES   4   0  83 W5        30.49S WCI  -5
HALLOCK        CLOUDY     3  -2  78 N8        30.57R WCI -10
ROSEAU         CLOUDY     3  -2  78 NW8       30.53S WCI -10
WARROAD        LGT SNOW   1  -2  85 NW9       30.52S WCI -14
THIEF RVR FALL FLURRIES   6   2  83 W6        30.53S WCI  -4
CROOKSTON      CLOUDY     5   0  78 NW9       30.56S WCI  -9
FOSSTON        LGT SNOW   3   1  92 S3        30.51S
DETROIT LAKES  LGT SNOW   9   3  78 W6        30.51S WCI  -1
MOORHEAD       MIX PCPN   7   1  78 NW7       30.57S WCI  -5
PARK RAPIDS    CLOUDY     7   0  73 W5        30.49R WCI  -2
$$
MNZ006-009>011-018-025>026-091600-
   North Central Minnesota

CITY           SKY/WX    TMP DP  RH WIND       PRES   REMARKS
BAUDETTE       LGT SNOW   3  -4  72 NW10      30.49S WCI -12
FLAG ISLAND    CLOUDY     1  -2  85 W10       30.50R WCI -14
INTL FALLS     CLOUDY     5  -1  76 W10       30.47S HAZE    WCI -10
WASKISH        CLOUDY     5   0  78 NW5       30.50S WCI  -4
BIG FORK       CLOUDY     5   0  78 CALM      30.49R
LONGVILLE      LGT SNOW   9   1  72 CALM      30.49S
GRAND RAPIDS   FLURRIES   7   1  76 NW13      30.50S WCI  -9
CRANE LAKE     CLOUDY     7   1  78 SW3       30.48R
ORR            CLOUDY     3  -2  78 W8        30.44R WCI -10
COOK           CLOUDY     5   0  78 W10       30.47R WCI -10
$$
MNZ012-019>021-037-091600-
   Northeast Minnesota

CITY           SKY/WX    TMP DP  RH WIND       PRES   REMARKS
DULUTH         MOCLDY     9   3  77 NW10      30.45R WCI  -5
ELY            FLURRIES   9   3  78 W7        30.42R WCI  -3
HIBBING        MIX PCPN   5   0  79 NW12      30.47R WCI -11
EVELETH        MOCLDY    10   3  74 NW13      30.46S WCI  -6
DULUTH HARBOR  CLOUDY    16   7  67 NW9       30.53S WCI   4
TWO HARBORS    MOCLDY    14   7  73 W5        30.45S WCI   6
SILVER BAY     CLOUDY    12   7  79 W5        30.44R WCI   4
GRAND MARAIS     N/A     17   9  70 CALM      30.46R
G MARAIS ARPRT LGT SNOW   9   3  78 CALM      30.35R
$$
MNZ029>031-032-039>041-046>048-054>057-064-091600-
   West Central Minnesota

CITY           SKY/WX    TMP DP  RH WIND       PRES   REMARKS
FERGUS FALLS   CLOUDY     3   0  85 W5        30.60S FOG     WCI  -6
WHEATON        PTCLDY     1  -4  78 W8        30.60S WCI -12
MORRIS         CLOUDY     3  -2  78 W8        30.56R WCI -10
ALEXANDRIA     CLOUDY     5   2  87 W7        30.52R WCI  -7
ELBOW LAKE     LGT SNOW   2  -1  85 NW7       30.56R WCI -10
WADENA         FLURRIES   7   3  85 CALM      30.50S
GLENWOOD       CLOUDY     5   1  85 W5        30.53R WCI  -4
APPLETON       CLOUDY     3  -2  78 W7        30.59R WCI  -9
BENSON         FLURRIES   7   1  78 N3        30.57R
ORTONVILLE     CLEAR      1  -6  71 CALM      30.58S
MADISON        CLEAR      3  -2  78 W6        30.60R WCI  -8
WILLMAR        LGT SNOW   9   5  85 W8        30.57R WCI  -4
$$
MNZ033>034-036-042>043-049>051-058-059-091600-
   Central Minnesota

CITY           SKY/WX    TMP DP  RH WIND       PRES   REMARKS
ST CLOUD       MOCLDY     6   3  87 NW6       30.54S WCI  -4
PAYNESVILLE    FLURRIES   5   4  94 W3        30.55R
AITKIN         CLOUDY    12   3  67 CALM      30.48S
PINE RIVER     CLOUDY     9   3  78 NW3       30.52R
BRAINERD       CLOUDY    10   5  80 N6        30.50S WCI   0
STAPLES        CLOUDY     7   3  85 NW9       30.51R WCI  -7
LONG PRAIRIE   CLOUDY     9   5  85 W7        30.52S WCI  -3
LITTLE FALLS   CLOUDY     9   5  85 W3        30.53R
LITCHFIELD     CLEAR      7   3  85 W3        30.55S
BUFFALO        FLURRIES   9   5  84 W3        30.56S
MAPLE LAKE     LGT SNOW   9   6  89 W5        30.55S WCI   0
HUTCHINSON     CLEAR      6   3  86 W6        30.56S WCI  -4
$$
MNZ037-044-045-052-053-091600-
   East Central Minnesota

CITY           SKY/WX    TMP DP  RH WIND       PRES   REMARKS
PRINCETON      FLURRIES  10   7  85 W6        30.53S WCI   1
MORA           FLURRIES  12   9  85 NW5       30.53S WCI   4
CAMBRIDGE      FLURRIES  16   9  73 W5        30.51S WCI   9
RUSH CITY      CLOUDY    14  10  85 W3        30.53S
MOOSE LAKE     CLOUDY    12   9  85 CALM      30.49R
HINCKLEY       CLOUDY    14  10  85 NW6       30.51S WCI   5
CLOQUET        CLOUDY     9   3  78 NW6       30.47S WCI  -1
MCGREGOR       CLOUDY    10   7  85 NW5       30.50R WCI   2
$$
MNZ071>073-080-081-089-090-097-098-091600-
   Southwest Minnesota

CITY           SKY/WX    TMP DP  RH WIND       PRES   REMARKS
MONTEVIDEO     CLOUDY     1   0  92 NW6       30.60R WCI -10
GRANITE FALLS  CLOUDY     4   0  83 W10       30.61R WCI -11
CANBY          PTCLDY     2  -3  79 CALM      30.59R
MARSHALL       CLOUDY     1  -4  79 NW6       30.59R WCI -10
REDWOOD FALLS  MOCLDY     3  -3  76 W8        30.59R WCI -10
OLIVIA         FLURRIES   5   1  85 W8        30.58R WCI  -8
PIPESTONE      CLOUDY     1  -2  85 NW6       30.52S WCI -10
WINDOM         CLOUDY     3   0  85 CALM      30.55S
WORTHINGTON    PTCLDY     3  -1  83 W5        30.55R WCI  -6
JACKSON        CLOUDY     5   0  78 NW5       30.55S WCI  -4
TRACY          CLOUDY     4  -1  81 NW7       30.57S WCI  -8
SLAYTON        CLOUDY     1  -2  85 W5        30.54R WCI  -9
$$
MNZ065>067-074>077-082>085-091>093-091600-
   South Central Minnesota

CITY           SKY/WX    TMP DP  RH WIND       PRES   REMARKS
MANKATO        SUNNY      5   1  83 W9        30.58R WCI  -9
NEW ULM          N/A      3   0  85 W8        30.59R WCI -10
ST JAMES       CLOUDY     5   1  85 W9        30.59S WCI  -9
FAIRMONT       CLOUDY     5   1  83 NW9       30.59R WCI  -9
GLENCOE        CLEAR      7   5  90 W6        30.56S WCI  -3
OWATONNA       LGT SNOW   9   3  78 W7        30.55R WCI  -3
WASECA         SUNNY      7   3  85 W7        30.58R WCI  -5
ALBERT LEA     CLOUDY    12   9  85 W5        30.55R WCI   4
$$
MNZ078>079-086>088-094>096-091600-
   Southeast Minnesota

CITY           SKY/WX    TMP DP  RH WIND       PRES   REMARKS
ROCHESTER      SUNNY      8   5  87 W6        30.53R WCI  -2
RED WING       LGT SNOW  12   9  85 W5        30.56R WCI   4
STANTON        FLURRIES   9   4  83 SW5       30.56R WCI   0
DODGE CENTER   LGT SNOW   9   7  92 W6        30.53R VSB 1   WCI  -1
WINONA         SUNNY     18  12  79 NW6       30.58R WCI   9
AUSTIN         LGT SNOW  10   7  85 NW7       30.54R WCI   0
PRESTON        SUNNY      8   5  86 NW6       30.54R WCI  -2
$$
ABBREVIATIONS USED IN REMARKS
   TC - TEMPERATURES IN CELSIUS
  WCI - WIND CHILL INDEX
   HX - HEAT INDEX
  VSB - VISIBILITY
$$



USA.gov is the U.S. government's official web portal to all federal, state and local government web resources and services.